sat.trackr.live / text

‹ back to catalog

STARLINK-34558

NORAD 64721 · 2025-142AB

PAYLOAD ACTIVE UNKNOWN

§ Identity

Operator
Country
US
Launch date
2025-06-28
Launch site
AFWTR
Launch vehicle
Mass (kg)
RCS (m²)

Purposes: comms

External: N2YO · Heavens-Above · Gunter

§ Orbital elements

Epoch: 2026-09-20T09:30:34.545888Z

Period
94.14 min
Inclination
70.0020°
Eccentricity
0.0002611
Mean motion
15.29592863 rev/d
Perigee alt
475.2 km
Apogee alt
478.8 km
Semi-major
6,855.2 km
B*
2.9401e-4
RAAN
181.2271°
Arg perigee
277.5138°
Mean anomaly
82.5740°
Rev number
6,868

§ Raw data

STARLINK-345581 64721U 25142AB  26263.39623317  .00008336  00000+0  29401-3 0  99952 64721  70.0020 181.2271 0002611 277.5138  82.5740 15.29592863 68680

JSON: /api/v1/satellites/64721 · /tle

For live sub-satellite position, see the globe view (requires WebGL).

§ Visibility from observer

Set your observer location to see the next 7 days of passes ≥ 10°. The values pass through the URL so the page stays shareable.

No JS? Fill the form by hand. The geolocation button needs JavaScript.